Location: Ottawa
(45.4167°N, 75.7000°W)
Time: 21:36:50
(UTC-04:00)

Envisat - Pass Details

Date: 16 October 2017
Orbit: 764 x 766 km, 98.2° (Epoch: 19 October)

Event Time Altitude Azimuth Distance (km) Brightness Sun altitude
Exits shadow 20:46:16 78° 353° (N) 786 2.9 -27.1°
Drops below altitude 10° 20:51:02 10° 347° (NNW) 2,312 5.8 -27.9°
Sets 20:53:21 0° 347° (NNW) 3,242 6.6 -28.3°
